OVO0649 ZYHB-ZSPD

Flight info

Callsign OVO0649
Flight time N/A
Altitude 38100
Route DUKIR W655 NIMEM W205 NULRA A588 BIDIB A345 DDG DONVO A326 IKADI W113 SOSMA W108 MATNU W115 PINOT
Aircraft A339/H-SADE1E2E3GHIJ1J3J5M1P2RWXY/LB2D1

Departure

Time N/A
Airport Harbin Taiping International Airport (ZYHB)

Arrival

Time 2026-05-04 07:38
Airport Shanghai Pudong International Airport (ZSPD)
Time Latitude Longitude Altitude Speed Heading
2026-05-04 06:18 44.17339 125.81943 29684 ft 495 kts 192°
2026-05-04 06:18 44.13851 125.81506 29962 ft 502 kts 184°
2026-05-04 06:18 44.10347 125.81693 30249 ft 507 kts 175°
2026-05-04 06:20 43.82602 125.86564 32861 ft 506 kts 196°
2026-05-04 06:20 43.77474 125.84679 33212 ft 503 kts 203°
2026-05-04 06:21 43.58679 125.71963 35088 ft 491 kts 214°
2026-05-04 06:21 43.54095 125.68615 35526 ft 488 kts 214°
2026-05-04 06:22 43.49543 125.65353 35940 ft 486 kts 213°
2026-05-04 06:22 43.45032 125.62159 36307 ft 484 kts 213°
2026-05-04 06:25 42.85837 125.20699 37833 ft 486 kts 212°
2026-05-04 06:26 42.76706 125.14342 37856 ft 485 kts 212°
2026-05-04 06:26 42.67624 125.07954 37867 ft 485 kts 212°
2026-05-04 06:27 42.44866 124.92079 37897 ft 484 kts 212°
2026-05-04 06:28 42.35804 124.85796 37906 ft 484 kts 213°
2026-05-04 06:28 42.26717 124.79514 37890 ft 484 kts 213°
2026-05-04 06:29 42.17643 124.73263 37894 ft 483 kts 213°
2026-05-04 06:29 42.08519 124.67001 37889 ft 482 kts 213°
2026-05-04 06:30 41.99511 124.60834 37903 ft 482 kts 212°
2026-05-04 06:30 41.90646 124.54231 37904 ft 480 kts 216°
2026-05-04 06:31 41.81863 124.47483 37911 ft 479 kts 215°
2026-05-04 06:31 41.73089 124.40806 37922 ft 479 kts 215°
2026-05-04 06:33 41.36937 124.17145 37925 ft 491 kts 192°
2026-05-04 06:34 41.26524 124.17111 37934 ft 498 kts 178°
2026-05-04 06:34 41.16069 124.18443 37944 ft 497 kts 179°
2026-05-04 06:36 40.73323 124.22948 37981 ft 493 kts 179°
2026-05-04 06:37 40.61607 124.24272 37967 ft 493 kts 179°
2026-05-04 06:37 40.49853 124.25601 37968 ft 492 kts 179°
2026-05-04 06:38 40.38114 124.26929 37964 ft 491 kts 179°
2026-05-04 06:40 39.98815 124.18526 37990 ft 472 kts 201°
2026-05-04 06:40 39.93388 124.16518 37972 ft 471 kts 201°
2026-05-04 06:40 39.82525 124.12575 37981 ft 470 kts 201°
2026-05-04 06:41 39.71672 124.08652 37994 ft 470 kts 201°
2026-05-04 06:41 39.60803 124.04731 37986 ft 469 kts 201°
2026-05-04 06:42 39.49994 124.00841 37984 ft 469 kts 201°
2026-05-04 06:44 39.04678 123.84675 38051 ft 465 kts 201°
2026-05-04 06:44 38.92977 123.80539 38049 ft 464 kts 201°
2026-05-04 06:45 38.81323 123.76429 38061 ft 463 kts 201°
2026-05-04 06:45 38.69716 123.72353 38066 ft 462 kts 201°
2026-05-04 06:46 38.58076 123.68276 38083 ft 463 kts 201°
2026-05-04 06:46 38.46484 123.64229 38080 ft 462 kts 201°
2026-05-04 06:48 38.00147 123.48193 38115 ft 458 kts 201°
2026-05-04 06:50 37.53982 123.33525 38133 ft 464 kts 191°
2026-05-04 06:51 37.41796 123.33502 38131 ft 471 kts 183°
2026-05-04 06:51 37.29633 123.34099 38135 ft 469 kts 185°
2026-05-04 06:52 37.17433 123.34456 38138 ft 467 kts 185°
2026-05-04 06:52 37.05214 123.34785 38146 ft 467 kts 185°
2026-05-04 06:53 36.93108 123.35127 38140 ft 467 kts 185°
2026-05-04 06:53 36.80967 123.35470 38146 ft 466 kts 185°
2026-05-04 06:54 36.68804 123.35807 38144 ft 465 kts 185°
2026-05-04 06:54 36.56702 123.36144 38148 ft 464 kts 185°
2026-05-04 06:55 36.43722 123.36505 38146 ft 463 kts 185°
2026-05-04 06:55 36.30801 123.36863 38145 ft 462 kts 186°
2026-05-04 06:57 35.79702 123.38303 38158 ft 458 kts 186°
2026-05-04 06:58 35.66859 123.38661 38161 ft 459 kts 186°
2026-05-04 06:58 35.54162 123.39018 38176 ft 456 kts 186°
2026-05-04 06:59 35.41446 123.39373 38177 ft 455 kts 187°
2026-05-04 06:59 35.28752 123.39724 38182 ft 453 kts 187°
2026-05-04 07:01 34.78410 123.42368 38205 ft 454 kts 185°
2026-05-04 07:02 34.65769 123.43452 38205 ft 455 kts 185°
2026-05-04 07:02 34.53206 123.44540 38204 ft 453 kts 185°
2026-05-04 07:03 34.40566 123.45631 38204 ft 451 kts 186°
2026-05-04 07:03 34.34453 123.45505 38170 ft 432 kts 200°
2026-05-04 07:03 34.28931 123.43104 38207 ft 410 kts 217°
2026-05-04 07:04 34.24486 123.39095 38211 ft 397 kts 230°
2026-05-04 07:04 34.21097 123.33932 38206 ft 389 kts 243°
2026-05-04 07:04 34.17298 123.21954 38211 ft 386 kts 253°
2026-05-04 07:05 34.13916 123.09640 38212 ft 388 kts 252°
2026-05-04 07:05 34.10301 122.97398 38213 ft 388 kts 252°
2026-05-04 07:06 34.04802 122.79062 38214 ft 388 kts 252°
2026-05-04 07:07 34.01130 122.66877 38215 ft 388 kts 250°
2026-05-04 07:08 33.65294 122.52544 38223 ft 449 kts 187°
2026-05-04 07:09 33.59065 122.52985 38219 ft 448 kts 188°
2026-05-04 07:09 33.46631 122.53674 38222 ft 446 kts 188°
2026-05-04 07:10 33.34235 122.54336 38216 ft 447 kts 188°
2026-05-04 07:12 32.84616 122.57037 37552 ft 442 kts 189°
2026-05-04 07:12 32.78447 122.57378 37056 ft 436 kts 189°
2026-05-04 07:12 32.72471 122.57706 36536 ft 429 kts 189°
2026-05-04 07:12 32.66489 122.58027 35975 ft 428 kts 189°
2026-05-04 07:13 32.60550 122.58337 35458 ft 429 kts 189°
2026-05-04 07:13 32.54631 122.58648 35032 ft 427 kts 189°
2026-05-04 07:13 32.48696 122.58965 34652 ft 426 kts 189°
2026-05-04 07:14 32.24989 122.60230 31088 ft 427 kts 188°
2026-05-04 07:14 32.19143 122.60544 30158 ft 423 kts 188°
2026-05-04 07:15 32.13272 122.60867 29358 ft 417 kts 188°
2026-05-04 07:15 32.07547 122.61173 28517 ft 413 kts 188°
2026-05-04 07:15 32.01802 122.61472 27615 ft 410 kts 187°
2026-05-04 07:15 31.96101 122.61771 26727 ft 406 kts 187°
2026-05-04 07:16 31.90485 122.62067 25826 ft 403 kts 187°
2026-05-04 07:16 31.84912 122.62368 25212 ft 397 kts 187°
2026-05-04 07:16 31.79429 122.62663 24512 ft 393 kts 186°
2026-05-04 07:16 31.73988 122.62942 23414 ft 394 kts 186°
2026-05-04 07:17 31.68507 122.63229 22469 ft 393 kts 185°
2026-05-04 07:17 31.64846 122.63783 21849 ft 403 kts 172°
2026-05-04 07:17 31.62205 122.64889 21428 ft 407 kts 164°
2026-05-04 07:17 31.59618 122.66167 21032 ft 403 kts 167°
2026-05-04 07:18 31.56925 122.66695 20550 ft 384 kts 190°
2026-05-04 07:18 31.54415 122.65914 20083 ft 367 kts 213°
2026-05-04 07:18 31.52528 122.64041 19599 ft 355 kts 237°
2026-05-04 07:18 31.51425 122.61507 19118 ft 351 kts 250°
2026-05-04 07:19 31.50506 122.58843 18632 ft 353 kts 250°
2026-05-04 07:19 31.49541 122.56220 18139 ft 354 kts 249°
2026-05-04 07:19 31.48513 122.53595 17647 ft 355 kts 248°
2026-05-04 07:19 31.47464 122.51006 16884 ft 353 kts 247°
2026-05-04 07:20 31.46406 122.48437 15993 ft 349 kts 247°
2026-05-04 07:20 31.45480 122.45850 15133 ft 344 kts 257°
2026-05-04 07:20 31.45036 122.43125 14607 ft 342 kts 267°
2026-05-04 07:20 31.44972 122.40382 14256 ft 338 kts 272°
2026-05-04 07:22 31.44899 122.22062 12881 ft 301 kts 260°
2026-05-04 07:22 31.43958 122.19919 12803 ft 301 kts 230°
2026-05-04 07:23 31.42194 122.18607 12587 ft 308 kts 199°
2026-05-04 07:23 31.40081 122.18179 12376 ft 307 kts 189°
2026-05-04 07:23 31.37967 122.17937 12178 ft 303 kts 189°
2026-05-04 07:23 31.35889 122.17602 11974 ft 296 kts 198°
2026-05-04 07:24 31.33970 122.16827 11759 ft 287 kts 209°
2026-05-04 07:24 31.32204 122.15810 11525 ft 282 kts 212°
2026-05-04 07:24 31.30463 122.14744 11268 ft 279 kts 212°
2026-05-04 07:24 31.28750 122.13691 10959 ft 279 kts 212°
2026-05-04 07:25 31.27071 122.12553 10624 ft 276 kts 220°
2026-05-04 07:26 31.22880 122.01073 8096 ft 248 kts 326°
2026-05-04 07:27 31.24347 121.99992 7784 ft 247 kts 327°
2026-05-04 07:27 31.25777 121.98914 7553 ft 243 kts 326°
2026-05-04 07:27 31.27189 121.97823 7270 ft 241 kts 326°
2026-05-04 07:27 31.28573 121.96740 6950 ft 241 kts 326°
2026-05-04 07:28 31.29952 121.95651 6697 ft 239 kts 325°
2026-05-04 07:28 31.31327 121.94562 6439 ft 236 kts 325°
2026-05-04 07:28 31.32663 121.93490 6194 ft 233 kts 322°
2026-05-04 07:28 31.33701 121.92045 5847 ft 233 kts 299°
2026-05-04 07:29 31.34409 121.90379 5524 ft 226 kts 297°
2026-05-04 07:29 31.35086 121.88729 5145 ft 223 kts 297°
2026-05-04 07:29 31.35767 121.87122 4755 ft 221 kts 297°
2026-05-04 07:29 31.36454 121.85549 4446 ft 216 kts 298°
2026-05-04 07:30 31.37147 121.83993 4218 ft 214 kts 298°
2026-05-04 07:30 31.37838 121.82458 4014 ft 213 kts 298°
2026-05-04 07:30 31.38527 121.80935 3817 ft 213 kts 297°
2026-05-04 07:30 31.39221 121.79405 3596 ft 212 kts 297°
2026-05-04 07:31 31.39918 121.77871 3382 ft 213 kts 297°
2026-05-04 07:31 31.40514 121.76321 3208 ft 206 kts 278°
2026-05-04 07:33 31.33330 121.75060 1998 ft 157 kts 163°
2026-05-04 07:33 31.32295 121.75458 1964 ft 157 kts 163°
2026-05-04 07:33 31.31244 121.75861 1959 ft 157 kts 163°
2026-05-04 07:33 31.30199 121.76259 1959 ft 157 kts 163°
2026-05-04 07:34 31.29169 121.76650 1954 ft 157 kts 163°
2026-05-04 07:34 31.28124 121.77045 1961 ft 156 kts 163°
2026-05-04 07:34 31.27080 121.77439 1955 ft 156 kts 163°
2026-05-04 07:34 31.26051 121.77827 1954 ft 156 kts 163°
2026-05-04 07:35 31.25010 121.78220 1818 ft 157 kts 163°
2026-05-04 07:35 31.23968 121.78613 1614 ft 156 kts 163°
2026-05-04 07:35 31.22930 121.79005 1410 ft 155 kts 162°
2026-05-04 07:35 31.21904 121.79391 1212 ft 155 kts 161°
2026-05-04 07:36 31.20871 121.79782 1007 ft 154 kts 161°
2026-05-04 07:36 31.19855 121.80165 811 ft 154 kts 161°
2026-05-04 07:38 31.14254 121.82129 30 ft 12 kts 240°
2026-05-04 07:38 31.14296 121.82058 30 ft 11 kts 337°
2026-05-04 07:38 31.14372 121.82024 30 ft 12 kts 342°
2026-05-04 07:38 31.14441 121.82001 30 ft 6 kts 345°